[[{"header":{"parameterUnit":"m.s-1","parameterCategory":1,"la1":30.2991,"la2":30.254,"lo1":-89.0895,"lo2":-89.0444,"dy":0.0017,"dx":0.0017,"nx":28,"ny":28,"refTime":"2023-09-30T09:00:00:Z","depth":0,"parameterNumber":2,"parameterNumberName":"U-component_of_WINDS"},"data":[0,0,0,0,0,0,0,0,0,0,0,0,0,0,0,0,0,0,0,0,0,0,0,0,0,0,0,0,0,0,0,0,0,0,0,0,0,0,0,0,0,0,0,0,0,0,0,0,0,0,0,0,0,0,0,0,0,0,-3.7827,-3.7827,0,-3.7803,-3.7802,-3.7802,-3.7623,-3.7618,-3.7614,-3.761,-3.7586,-3.759,-3.7593,0,0,0,0,0,0,0,0,0,0,0,0,0,-3.772,-3.7723,-3.7827,-3.7827,-3.7826,-3.7803,-3.7802,-3.7802,-3.7624,-3.7618,-3.7613,-3.7608,-3.7585,-3.7589,-3.7593,0,0,0,0,0,0,0,0,0,0,0,0,0,-3.7738,-3.7724,-3.7827,-3.7735,-3.7726,-3.7803,-3.7802,-3.7802,-3.7625,-3.7618,-3.7611,-3.7605,-3.7584,-3.7589,-3.7594,-3.7758,0,0,-3.761,-3.7612,0,0,0,0,0,0,0,0,-3.7737,-3.7742,-3.7748,-3.7741,-3.7732,-3.7709,-3.7756,-3.7787,-3.7626,-3.7663,-3.761,-3.7602,-3.7633,-3.7633,-3.7643,-3.7757,-3.7756,-3.761,-3.7613,-3.7616,-3.7617,0,0,0,0,0,0,0,-3.7736,-3.7742,-3.7817,-3.7749,-3.7739,-3.7694,-3.769,-3.7761,-3.7685,-3.7659,-3.7646,-3.7646,-3.7627,-3.7639,-3.7641,-3.7756,-3.761,-3.7615,-3.7618,-3.762,-3.8003,-3.801,0,0,0,0,0,0,-3.7748,-3.7743,-3.7818,-3.7817,-3.7718,-3.7702,-3.7696,-3.7723,-3.7684,-3.7672,-3.7652,-3.7638,-3.7633,-3.7635,-3.764,-3.7829,-3.7616,-3.7621,-3.7623,-3.7996,-3.8005,-3.8012,0,0,0,0,0,0,-3.7746,-3.7756,-3.7819,-3.7776,-3.7781,-3.7711,-3.7742,-3.7726,-3.7738,-3.7678,-3.7664,-3.7678,-3.7628,-3.7632,-3.773,-3.7826,-3.7623,-3.7628,-3.7988,-3.7999,-3.8008,-3.821,0,0,0,0,0,0,-3.7744,-3.7757,-3.7818,-3.7779,-3.7784,-3.791,-3.7748,-3.773,-3.7747,-3.7729,-3.7699,-3.7687,-3.7623,-3.7723,-3.7735,-3.7829,-3.7632,-3.7979,-3.7993,-3.8005,-3.8195,-3.8226,-3.8253,0,0,0,0,0,-3.7741,-3.7876,-3.7822,-3.7833,-3.7859,-3.7916,-3.7918,-3.7841,-3.7756,-3.7817,-3.7778,-3.7688,-3.7814,-3.7735,-3.7747,-3.7844,-3.7972,-3.7989,-3.8004,-3.8181,-3.822,-3.8253,0,0,0,0,0,0,-3.7929,-3.7869,-3.7809,-3.7936,-3.7932,-3.7885,-3.796,-3.7885,-3.7906,-3.7888,-3.7792,-3.7786,-3.7899,-3.7881,-3.7794,-3.8001,-3.7877,-3.7897,-3.8008,-3.8045,-3.8073,-3.8075,-3.7636,0,0,0,0,0,-3.7986,-3.8037,-3.7981,-3.8099,-3.81,-3.8031,-3.8053,-3.7994,-3.7986,-3.7984,-3.7953,-3.795,-3.7988,-3.8015,-3.8047,-3.8191,-3.8182,-3.8264,-3.8294,-3.8318,-3.8336,-3.8411,-3.8446,-3.8064,-3.8064,-3.8064,0,0,-3.8103,-3.8076,-3.8114,-3.8136,-3.8126,-3.8181,-3.8031,-3.8096,-3.8135,-3.7994,-3.8084,-3.8061,-3.8051,-3.8173,-3.8225,-3.8161,-3.8439,-3.8338,-3.8358,-3.8362,-3.8431,-3.8467,-3.8499,-3.8075,-3.8073,-3.8071,0,0,-3.8343,-3.8329,-3.8424,-3.8418,-3.8405,-3.8358,-3.8382,-3.8347,-3.8326,-3.8415,-3.831,-3.8356,-3.8424,-3.8421,-3.8429,-3.867,-3.8588,-3.8683,-3.8837,-3.8911,-3.8941,-3.8968,-3.9054,-3.9086,-3.8701,-3.8702,-3.8702,0,-3.849,-3.8568,-3.8483,-3.8555,-3.8568,-3.8442,-3.8539,-3.8536,-3.8536,-3.8547,-3.8476,-3.856,-3.8544,-3.8663,-3.8722,-3.8733,-3.8756,-3.8686,-3.8944,-3.8969,-3.8993,-3.9073,-3.9106,-3.8713,-3.8712,-3.8711,-3.871,0,-3.875,-3.8806,-3.8885,-3.8887,-3.8908,-3.8992,-3.892,-3.8953,-3.8892,-3.8854,-3.8946,-3.8923,-3.8948,-3.8972,-3.8914,-3.9084,-3.9045,-3.8961,-3.8835,-3.9042,-3.9116,-3.9147,-3.873,-3.8726,-3.8722,-3.8719,0,0,-3.9108,-3.9062,-3.9092,-3.9091,-3.9068,-3.911,-3.9189,-3.9213,-3.9243,-3.9247,-3.931,-3.9372,-3.9294,-3.9302,-3.9243,-3.9308,-3.9501,-3.9215,-3.9214,-3.9269,-3.9687,-3.975,-3.9787,-3.9446,-3.9452,-3.9456,-3.9688,0,-3.9339,-3.947,-3.9396,-3.9537,-3.9588,-3.947,-3.9538,-3.9532,-3.9498,-3.9537,-3.9499,-3.9544,-3.9438,-3.9442,-3.9502,-3.9465,-3.9583,-3.9447,-3.9505,-3.9508,-3.9511,-3.9826,-3.9893,-4.0112,-3.9716,-3.9721,-3.9724,0,-3.9625,-3.9641,-3.9788,-3.9756,-3.9774,-3.9837,-3.9854,-3.9892,-3.9883,-3.9853,-3.9864,-3.9789,-3.9864,-3.974,-3.9843,-3.9752,-3.9771,-3.9757,-3.9764,-3.9766,-3.9629,-3.9837,-4.018,-4.0213,-3.9769,-3.9766,-3.9763,0,-3.9872,-3.993,-4.0025,-4.0028,-3.9993,-4.004,-4.0027,-4.0011,-4.0031,-4.0046,-4.0058,-4.0082,-4.0095,-4.0116,-4.0049,-3.9965,-4.0161,-4.0031,-4.0139,-4.0141,-4.0185,-4.0183,-4.0536,-4.0199,-4.0198,-4.0198,-4.0197,0,-4.0137,-4.0232,-4.0135,-4.0194,-4.0296,-4.0211,-4.0315,-4.029,-4.0277,-4.0329,-4.0229,-4.028,-4.0189,-4.0231,-4.0179,-4.0272,-4.0279,-4.0258,-4.0243,-4.0267,-4.027,-4.0278,-4.0261,-4.0206,-4.0204,-4.0203,-4.0201,0,-4.0429,-4.0368,-4.0464,-4.0423,-4.0415,-4.0493,-4.0457,-4.051,-4.047,-4.0537,-4.0548,-4.0485,-4.0529,-4.0465,-4.0503,-4.0468,-4.0596,-4.0558,-4.0599,-4.0588,-4.07,-4.069,-4.107,-4.1116,-4.075,-4.0753,-4.0756,0,-4.0602,-4.0672,-4.0639,-4.0666,-4.0659,-4.0705,-4.0724,-4.0643,-4.0668,-4.0663,-4.0717,-4.0753,-4.0777,-4.0855,-4.0812,-4.0841,-4.0803,-4.0934,-4.0806,-4.0828,-4.0805,-4.0801,-4.0808,-4.096,-4.0965,-4.0968,-4.0971,0,-4.0916,-4.0882,-4.0914,-4.0936,-4.0962,-4.0976,-4.0982,-4.101,-4.0925,-4.0958,-4.1002,-4.1021,-4.106,-4.1097,-4.1115,-4.1102,-4.1024,-4.1012,-4.1038,-4.1063,-4.1084,-4.1074,-4.0671,-4.1003,-4.1,-4.0998,-4.0996,-4.0995,-4.1153,-4.121,-4.1195,-4.1234,-4.123,-4.1238,-4.1286,-4.1252,-4.1287,-4.1312,-4.1262,-4.1319,-4.1308,-4.1324,-4.1321,-4.1364,-4.1307,-4.1345,-4.1355,-4.1366,-4.1383,-4.1078,-4.1367,-4.1366,-4.1365,-4.1365,-4.1364,0,-4.1461,-4.1446,-4.1483,-4.1494,-4.1525,-4.1448,-4.1451,-4.1482,-4.1533,-4.153,-4.1556,-4.1608,-4.1644,-4.1605,-4.1634,-4.1677,-4.1641,-4.1687,-4.1683,-4.1681,-4.1433,-4.1407,-4.1715,-4.1715,-4.1715,-4.1715,-4.1715,-4.1715,-4.1625,-4.1717,-4.1682,-4.1771,-4.1755,-4.181,-4.1818,-4.1826,-4.1822,-4.1884,-4.1914,-4.1888,-4.1871,-4.1898,-4.1928,-4.1915,-4.1931,-4.1989,-4.1965,-4.1733,-4.1699,-4.1666,-4.1641,-4.1993,-4.1994,-4.2209,-4.2211,-4.2213]},{"header":{"parameterUnit":"m.s-1","parameterCategory":1,"la1":30.2991,"la2":30.254,"lo1":-89.0895,"lo2":-89.0444,"dy":0.0017,"dx":0.0017,"nx":28,"ny":28,"refTime":"2023-09-30T09:00:00:Z","depth":0,"parameterNumber":3,"parameterNumberName":"V-component_of_WINDS"},"data":[0,0,0,0,0,0,0,0,0,0,0,0,0,0,0,0,0,0,0,0,0,0,0,0,0,0,0,0,0,0,0,0,0,0,0,0,0,0,0,0,0,0,0,0,0,0,0,0,0,0,0,0,0,0,0,0,0,0,0.2408,0.2407,0,0.2269,0.2267,0.2266,0.2185,0.2185,0.2185,0.2184,0.2036,0.2033,0.2029,0,0,0,0,0,0,0,0,0,0,0,0,0,0.2602,0.2599,0.2409,0.2407,0.2405,0.2269,0.2267,0.2265,0.2185,0.2185,0.2185,0.2184,0.2038,0.2033,0.2029,0,0,0,0,0,0,0,0,0,0,0,0,0,0.2496,0.2598,0.2409,0.2349,0.2342,0.227,0.2267,0.2265,0.2185,0.2185,0.2185,0.2184,0.2039,0.2034,0.2028,0.2003,0,0,0.2011,0.2009,0,0,0,0,0,0,0,0,0.2502,0.2489,0.2359,0.2353,0.2345,0.2244,0.2281,0.2177,0.2186,0.2245,0.2184,0.2184,0.2106,0.2095,0.2069,0.1996,0.199,0.2011,0.2008,0.2005,0.2004,0,0,0,0,0,0,0,0.251,0.2494,0.2353,0.2358,0.2349,0.2328,0.2312,0.2261,0.2179,0.224,0.2233,0.2218,0.2101,0.2075,0.2065,0.1987,0.2011,0.2006,0.2003,0.2001,0.1887,0.1888,0,0,0,0,0,0,0.2527,0.2501,0.2358,0.2349,0.2424,0.2325,0.2307,0.2277,0.2179,0.2164,0.2219,0.2215,0.2084,0.2072,0.206,0.2024,0.2005,0.2,0.1997,0.1887,0.1888,0.1888,0,0,0,0,0,0,0.2532,0.2515,0.2363,0.2423,0.2402,0.2322,0.2288,0.2274,0.2247,0.2164,0.2148,0.2207,0.2083,0.2067,0.2018,0.2017,0.1998,0.1993,0.1887,0.1887,0.1888,0.1952,0,0,0,0,0,0,0.2537,0.2517,0.2507,0.2424,0.24,0.2325,0.2288,0.2272,0.2239,0.2233,0.2148,0.2134,0.2082,0.2027,0.2013,0.201,0.1988,0.1886,0.1887,0.1888,0.195,0.1955,0.1959,0,0,0,0,0,0.2545,0.253,0.2507,0.249,0.2386,0.2326,0.2311,0.2253,0.2239,0.2228,0.2175,0.2137,0.2021,0.2023,0.2006,0.2001,0.1886,0.1887,0.1888,0.1948,0.1954,0.1959,0,0,0,0,0,0,0.2613,0.2517,0.2491,0.2449,0.2397,0.2312,0.2296,0.2262,0.221,0.2206,0.2135,0.2116,0.2074,0.2033,0.2037,0.1972,0.1949,0.1947,0.2001,0.2006,0.201,0.2021,0.1984,0,0,0,0,0,0.2623,0.2584,0.2502,0.2473,0.2448,0.2377,0.2348,0.2309,0.225,0.2227,0.217,0.2113,0.2064,0.2033,0.1982,0.1944,0.1924,0.1933,0.1938,0.1942,0.194,0.1917,0.192,0.189,0.189,0.189,0,0,0.2643,0.2587,0.2565,0.2485,0.2439,0.2399,0.2358,0.2317,0.2286,0.222,0.217,0.2127,0.2059,0.2016,0.1994,0.198,0.1944,0.1943,0.1947,0.1942,0.1918,0.1921,0.1923,0.1891,0.189,0.189,0,0,0.266,0.2613,0.2584,0.254,0.2472,0.2426,0.2419,0.2341,0.231,0.226,0.221,0.2172,0.2088,0.2042,0.2008,0.2011,0.1973,0.1996,0.202,0.1999,0.2001,0.2003,0.2003,0.2004,0.1995,0.1995,0.1995,0,0.2693,0.2631,0.2573,0.2535,0.2501,0.2443,0.2412,0.2371,0.229,0.2268,0.2254,0.215,0.21,0.2045,0.2046,0.202,0.201,0.2004,0.2006,0.2007,0.2007,0.2007,0.2008,0.1998,0.1998,0.1998,0.1997,0,0.2676,0.2634,0.2618,0.2544,0.2509,0.2475,0.241,0.2381,0.2345,0.23,0.225,0.2189,0.2126,0.2111,0.2074,0.2051,0.2045,0.202,0.1995,0.2014,0.2013,0.2012,0.2003,0.2002,0.2001,0.2,0,0,0.2728,0.2625,0.262,0.2586,0.2508,0.2474,0.2438,0.2379,0.2355,0.2302,0.2269,0.2202,0.2178,0.214,0.2098,0.2079,0.2085,0.2056,0.2053,0.2063,0.2056,0.2075,0.2076,0.2061,0.2061,0.2061,0.2062,0,0.2733,0.2666,0.2614,0.2566,0.2527,0.2472,0.2441,0.239,0.2347,0.2307,0.2259,0.2212,0.2185,0.2162,0.2141,0.2089,0.2083,0.2088,0.2029,0.2027,0.2046,0.2075,0.2094,0.2098,0.2061,0.2061,0.2061,0,0.2728,0.268,0.263,0.2558,0.2539,0.2512,0.2454,0.2417,0.2358,0.2328,0.2287,0.2244,0.2203,0.2184,0.2126,0.2131,0.2103,0.2075,0.2073,0.2064,0.2044,0.2066,0.2098,0.2098,0.2059,0.2059,0.2059,0,0.2772,0.2694,0.2654,0.2626,0.2542,0.2524,0.2488,0.2428,0.2397,0.2346,0.2325,0.2269,0.2239,0.2196,0.214,0.2131,0.2087,0.2063,0.206,0.2062,0.2052,0.2053,0.2079,0.2037,0.2037,0.2037,0.2037,0,0.2781,0.2753,0.2672,0.2647,0.2614,0.2554,0.2522,0.2481,0.2429,0.2394,0.2343,0.2312,0.224,0.2199,0.2155,0.2113,0.21,0.2074,0.2062,0.2078,0.2081,0.2058,0.2056,0.2037,0.2037,0.2037,0.2037,0,0.2823,0.2768,0.2721,0.2646,0.2627,0.2605,0.254,0.2514,0.247,0.2427,0.2414,0.2344,0.2294,0.2234,0.2164,0.2134,0.2097,0.208,0.2117,0.211,0.2111,0.2111,0.2121,0.2119,0.208,0.2081,0.2081,0,0.2832,0.2809,0.2733,0.2707,0.2673,0.2632,0.2601,0.2542,0.251,0.2443,0.2425,0.2372,0.2326,0.2249,0.2191,0.2137,0.2118,0.2125,0.2109,0.2126,0.2117,0.2119,0.2116,0.2129,0.213,0.213,0.2131,0,0.2854,0.2829,0.2786,0.2735,0.2699,0.2655,0.2608,0.259,0.2521,0.2489,0.2439,0.2404,0.2334,0.2282,0.2221,0.2182,0.2145,0.2137,0.2133,0.2148,0.2171,0.2158,0.2128,0.2136,0.2136,0.2135,0.2135,0.2135,0.2879,0.2857,0.2801,0.2755,0.2715,0.2673,0.2645,0.2599,0.2557,0.2497,0.2464,0.2415,0.2357,0.2273,0.2236,0.2195,0.2182,0.2177,0.2175,0.2175,0.2179,0.2179,0.2184,0.2184,0.2184,0.2184,0.2183,0,0.2899,0.2861,0.2819,0.2758,0.2722,0.2693,0.2641,0.2612,0.257,0.2521,0.2478,0.242,0.237,0.231,0.2255,0.2235,0.2216,0.2222,0.2222,0.2214,0.2195,0.2203,0.2238,0.2238,0.2238,0.2238,0.2238,0.2238,0.2904,0.2865,0.2834,0.2774,0.2735,0.2688,0.2661,0.2622,0.2583,0.2522,0.2481,0.2443,0.2389,0.2331,0.2283,0.2266,0.2248,0.2259,0.2238,0.222,0.2215,0.2211,0.2218,0.2256,0.2256,0.226,0.226,0.226]}]]